This is the latest recevied weather packets stored in our database for station/object DO1SC. If no packets are shown the sender has not sent any weather packets the latest 10 day(s).
| Time | Temp. | Humidity | Pressure | Rain* | Wind** | Luminosity | Snow |
|---|---|---|---|---|---|---|---|
| 1777545933 | 11.11° C | 32% | 1031 hPa | - | - | 669 W/m² | - |
| 1777545324 | 11.11° C | 32% | 1030.9 hPa | - | - | 666 W/m² | - |
| 1777544736 | 10.56° C | 32% | 1031.1 hPa | - | - | 654 W/m² | - |
| 1777544127 | 10.56° C | 32% | 1031.2 hPa | - | - | 647 W/m² | - |
| 1777543517 | 10.56° C | 32% | 1031.1 hPa | - | - | 638 W/m² | - |
| 1777542928 | 10° C | 33% | 1031.2 hPa | - | - | 626 W/m² | - |
| 1777542319 | 10° C | 34% | 1031.2 hPa | - | - | 614 W/m² | - |
| 1777541731 | 9.44° C | 34% | 1031.2 hPa | - | - | 602 W/m² | - |
| 1777541123 | 9.44° C | 35% | 1031.4 hPa | - | - | 586 W/m² | - |
| 1777540534 | 9.44° C | 33% | 1031.5 hPa | - | - | 565 W/m² | - |
| 1777539925 | 8.89° C | 36% | 1031.6 hPa | - | - | 544 W/m² | - |
| 1777538725 | 8.89° C | 37% | 1031.7 hPa | - | - | 285 W/m² | - |
| 1777538135 | 7.78° C | 37% | 1031.5 hPa | - | - | 467 W/m² | - |
| 1777537526 | 7.78° C | 36% | 1031.7 hPa | - | - | 471 W/m² | - |
| 1777536918 | 7.78° C | 37% | 1031.7 hPa | - | - | 452 W/m² | - |
| 1777536330 | 7.22° C | 39% | 1031.7 hPa | - | - | 432 W/m² | - |
| 1777535720 | 7.22° C | 38% | 1031.8 hPa | - | - | 406 W/m² | - |
| 1777535133 | 7.22° C | 39% | 1031.8 hPa | - | - | 385 W/m² | - |
| 1777534520 | 6.67° C | 38% | 1031.7 hPa | - | - | 360 W/m² | - |
| 1777533931 | 6.67° C | 40% | 1031.7 hPa | - | - | 336 W/m² | - |
| 1777533323 | 6.11° C | 39% | 1031.8 hPa | - | - | 313 W/m² | - |
| 1777532738 | 5.56° C | 41% | 1031.8 hPa | - | - | 279 W/m² | - |
| 1777532125 | 5° C | 42% | 1031.9 hPa | - | - | 246 W/m² | - |
| 1777531516 | 5° C | 44% | 1031.9 hPa | - | - | 215 W/m² | - |
| 1777530928 | 5° C | 44% | 1031.8 hPa | - | - | 138 W/m² | - |
* Rain since midnight (hover to see other rain measurements)
** Current wind speed in m/s (hover to see current wind gust speed)